Tracking 33845 objects as of 17-Apr-2026
HD Live streaming from Space Station
objects crossing your sky now

STARLINK-4140

Track STARLINK-4140 now!
10-day predictions
STARLINK-4140 is classified as:


NORAD ID: 53259
Int'l Code: 2022-086T
Perigee: 545.8 km
Apogee: 547.9 km
Inclination: 53.2 °
Period: 95.4 minutes
Semi major axis: 6917 km
RCS: Unknown
Launch date: July 24, 2022
Source: United States (US)
Launch site: AIR FORCE EASTERN TEST RANGE (AFETR)
Your satellite tracking list
Your tracking list is empty




NASA's NSSDC Master Catalog

Two Line Element Set (TLE):
1 53259U 22086T   26107.19506984 -.00000367  00000-0 -49505-5 0  9996
2 53259  53.2194  20.9048 0001517  86.1613 273.9553 15.08834644206883
Source of the keplerian elements: AFSPC